Lapse_Rate
6.8 6.9 6.7 6.7 6.7 6.8 6.7 6.4 6.1 6.0 6.0 5.8 5.7 5.5 5.3 5.0 4.9 4.7 4.7 4.8 5.0 5.2 5.1 5.2 5.0 4.8 4.7 4.6 4.5 4.6 4.6 4.7 4.8 4.9 5.0 5.1 5.2 5.2 5.2 5.3 5.2 5.1 5.1
6.7 7.0 6.8 6.7 6.8 6.7 6.7 6.5 6.3 6.0 6.0 5.9 5.6 5.4 5.2 4.8 4.7 4.7 4.8 4.8 5.0 5.1 5.1 5.0 4.8 4.7 4.5 4.5 4.5 4.5 4.6 4.7 4.8 4.9 5.1 5.1 5.1 5.2 5.2 5.3 5.1 5.0 5.1
6.5 6.8 6.9 6.7 6.9 6.9 6.7 6.5 6.3 6.2 6.0 5.8 5.4 5.4 5.0 4.7 4.6 4.6 4.7 4.9 4.9 4.9 4.9 4.8 4.7 4.6 4.5 4.5 4.4 4.5 4.7 4.8 4.8 4.9 5.0 5.1 5.1 5.1 5.1 5.2 5.1 5.2 5.2
6.6 6.9 7.1 6.9 6.9 7.0 6.9 6.6 6.3 6.1 6.1 5.9 5.6 5.5 5.0 4.8 4.7 4.7 4.7 4.9 4.9 4.8 4.7 4.6 4.6 4.5 4.5 4.4 4.4 4.5 4.6 4.6 4.6 4.8 5.0 5.1 5.1 5.1 5.3 5.3 5.3 5.3 5.3
6.6 6.9 7.3 7.0 7.1 7.1 7.0 6.7 6.4 6.2 6.1 6.0 5.8 5.4 5.2 4.8 4.7 4.7 4.7 5.1 4.9 4.7 4.6 4.5 4.4 4.5 4.4 4.3 4.3 4.5 4.6 4.7 4.6 4.8 4.9 5.0 5.0 5.1 5.2 5.3 5.4 5.4 5.4
6.0 6.5 6.7 7.0 7.0 7.2 7.0 6.8 6.4 6.2 6.2 6.0 6.0 5.5 5.3 5.0 4.8 4.7 4.8 5.1 4.9 4.7 4.5 4.4 4.3 4.3 4.3 4.3 4.3 4.4 4.6 4.7 4.6 4.7 4.8 4.9 5.1 5.1 5.2 5.3 5.5 5.4 5.4
5.8 6.3 6.2 6.6 6.6 7.0 7.0 6.7 6.4 6.2 6.1 6.1 5.9 5.7 5.3 5.1 4.8 4.8 4.8 5.0 4.9 4.7 4.5 4.3 4.2 4.2 4.2 4.2 4.3 4.4 4.5 4.6 4.6 4.8 4.9 4.9 5.0 5.2 5.2 5.4 5.5 5.6 5.6
5.7 5.6 6.3 6.4 6.4 6.4 6.7 6.6 6.4 6.3 6.1 5.7 5.7 5.7 5.4 5.1 5.0 4.7 4.9 5.0 4.9 4.6 4.4 4.2 4.1 4.1 4.2 4.1 4.2 4.4 4.5 4.7 4.7 4.9 5.0 5.0 5.1 5.2 5.2 5.3 5.4 5.5 5.6
5.4 5.2 5.7 6.2 6.2 6.0 6.2 6.4 6.3 6.0 5.8 5.5 5.3 5.2 5.4 5.1 5.1 4.9 5.0 5.0 4.9 4.6 4.4 4.3 4.1 4.1 4.1 4.0 4.1 4.3 4.4 4.6 4.7 4.9 5.0 5.1 5.1 5.2 5.3 5.4 5.5 5.6 5.6
5.2 5.4 5.4 5.6 6.0 6.1 6.2 6.0 6.1 5.8 5.8 5.6 5.2 5.2 5.4 5.2 5.0 5.1 5.2 5.1 4.8 4.6 4.5 4.3 4.1 4.0 4.0 4.0 4.0 4.1 4.3 4.5 4.7 4.7 5.0 5.1 5.2 5.3 5.3 5.3 5.5 5.6 5.7
5.0 5.1 5.6 5.5 5.7 6.0 6.2 6.2 5.8 5.9 5.5 5.4 5.1 5.1 5.1 5.3 5.3 5.2 5.3 5.2 4.9 4.6 4.4 4.3 4.2 4.0 4.0 4.0 4.1 4.2 4.3 4.4 4.7 4.6 4.9 5.0 5.2 5.2 5.3 5.4 5.5 5.7 5.8
5.1 4.9 5.5 5.3 5.8 6.0 6.1 6.1 5.8 5.5 5.4 5.4 5.5 5.5 5.3 5.3 5.4 5.4 5.3 5.1 4.9 4.7 4.4 4.2 4.1 4.1 4.1 4.1 4.1 4.2 4.4 4.5 4.6 4.7 4.8 5.0 5.2 5.3 5.3 5.4 5.6 5.6 5.7
4.7 4.8 4.8 4.9 5.1 5.7 5.6 5.9 5.8 5.4 5.2 5.3 5.3 5.4 5.3 5.1 5.3 5.4 5.5 5.2 5.0 4.7 4.4 4.2 4.1 4.1 4.1 4.1 4.1 4.3 4.3 4.6 4.6 4.7 4.9 5.0 5.2 5.3 5.5 5.5 5.6 5.6 5.7
4.5 4.7 5.0 4.8 4.8 5.1 5.1 5.2 5.3 5.5 5.3 5.2 5.4 5.3 5.3 5.4 5.3 5.8 5.5 5.3 5.0 4.7 4.5 4.3 4.3 4.2 4.2 4.2 4.2 4.3 4.4 4.6 4.8 4.8 4.9 5.1 5.2 5.3 5.4 5.6 5.5 5.6 5.7
4.4 4.4 4.6 4.6 4.4 4.9 4.9 4.5 4.8 5.6 5.4 5.6 5.4 5.4 5.4 5.5 5.6 5.6 5.4 5.2 4.9 4.8 4.7 4.5 4.5 4.4 4.5 4.5 4.5 4.6 4.6 4.7 4.9 5.0 5.0 5.1 5.3 5.4 5.6 5.6 5.5 5.6 5.7
4.5 4.4 4.7 4.7 4.9 4.9 5.6 5.0 5.2 5.5 5.6 5.3 5.5 5.4 5.3 5.4 5.4 5.4 5.4 5.2 5.0 4.9 4.7 4.6 4.6 4.6 4.6 4.7 4.8 4.7 4.8 4.8 4.9 5.1 5.3 5.4 5.5 5.5 5.6 5.6 5.6 5.7 5.7
4.4 4.9 4.9 4.7 5.0 5.4 5.7 5.1 5.2 5.0 5.5 5.3 5.3 4.9 4.9 5.6 5.7 5.7 5.6 5.3 5.1 5.0 4.8 4.7 4.7 4.8 4.8 4.8 4.9 5.0 5.0 5.0 5.1 5.2 5.5 5.7 5.8 5.7 5.6 5.7 5.8 5.8 5.9
4.5 4.8 5.6 5.9 6.3 5.3 4.9 5.6 4.8 5.1 5.2 5.1 4.6 5.3 5.5 5.7 6.0 5.8 5.6 5.3 5.1 5.0 5.0 5.0 4.9 5.0 5.0 5.0 4.9 5.1 5.1 5.3 5.5 5.4 5.6 5.9 5.8 5.8 5.9 5.8 5.9 5.7 5.8
5.2 5.7 5.9 5.5 5.7 4.7 4.9 5.7 4.8 4.5 4.9 5.2 5.3 5.2 6.1 5.7 5.8 5.8 5.6 5.3 5.2 5.1 5.1 5.1 5.1 5.2 5.3 5.3 5.3 5.5 5.4 5.6 5.6 5.8 5.7 5.7 5.9 5.9 5.9 6.0 5.9 5.7 5.6
5.6 5.3 5.3 5.5 5.6 4.5 4.6 5.5 4.4 5.0 4.4 5.1 5.1 5.0 5.4 5.8 5.8 5.7 5.5 5.4 5.4 5.3 5.3 5.4 5.4 5.4 5.5 5.5 5.6 5.9 5.9 6.3 5.4 5.9 6.0 5.9 5.8 5.7 5.7 5.9 5.9 5.7 5.7
5.5 5.9 5.9 5.4 5.7 4.4 4.6 5.4 4.5 4.9 4.8 4.9 4.8 5.2 5.5 5.4 5.4 5.5 5.4 5.4 5.4 5.5 5.4 5.5 5.5 5.7 5.9 5.9 6.1 6.2 6.1 6.4 6.1 5.6 5.9 6.0 5.8 5.6 5.6 5.8 5.8 5.9 5.9
5.6 5.5 5.6 5.8 5.6 4.7 5.2 5.3 4.9 5.2 4.9 5.0 4.9 5.1 5.4 5.4 5.4 5.5 5.5 5.5 5.4 5.4 5.6 5.6 5.9 6.1 6.3 6.4 6.6 6.5 6.4 6.2 6.0 6.1 5.8 5.7 5.6 5.9 5.8 5.7 5.8 5.9 5.9
5.8 5.5 5.5 5.5 5.6 4.7 5.3 5.5 5.2 4.9 4.9 4.8 4.5 4.9 5.3 5.2 5.3 5.4 5.5 5.6 5.7 5.9 6.1 6.3 6.5 6.4 6.3 6.3 6.3 6.6 6.5 6.4 6.3 6.0 5.3 5.4 5.5 5.8 5.7 5.5 5.5 5.8 5.6
5.6 5.4 5.2 5.4 5.4 4.8 5.1 5.2 5.4 5.1 5.0 4.9 4.6 4.7 5.3 5.0 5.3 5.5 5.4 5.6 5.7 5.8 5.6 5.8 5.7 5.8 5.8 5.8 6.1 6.3 6.3 5.9 5.7 5.7 5.4 5.1 5.3 5.4 5.5 5.5 5.1 5.1 5.0
5.4 5.4 5.3 5.2 5.2 4.9 4.9 4.9 4.8 4.8 4.8 4.4 4.1 4.1 4.7 5.1 5.2 5.3 5.5 5.5 5.4 5.4 5.5 5.0 5.2 5.2 5.3 5.4 5.3 5.5 5.5 5.3 5.5 5.6 5.3 5.2 5.0 4.8 4.8 4.7 5.1 5.4 5.4
5.9 5.3 5.7 5.5 5.4 5.0 4.9 5.1 5.1 4.7 4.7 4.8 4.6 4.9 5.0 5.1 4.9 4.9 5.1 5.2 4.9 4.9 5.1 5.1 5.2 5.4 5.1 5.5 5.7 6.0 5.7 5.4 5.6 5.0 5.2 5.3 5.1 5.0 5.3 5.6 5.1 5.2 5.5
Wind_Speed
6 14 20 22 17 16 16 16 15 15 18 18 17 16 17 18 19 20 20 17 14 15 19 19 18 18 19 20 18 18 18 19 22 21 18 18 17 20 16 17 13 13 17
14 18 21 20 20 16 15 15 14 12 17 18 17 18 17 19 20 20 19 17 20 21 21 18 18 19 18 19 17 16 15 15 18 18 20 18 18 19 18 17 16 18 18
16 18 18 19 19 16 13 14 14 12 19 17 18 19 18 20 20 20 18 19 20 19 20 19 17 17 17 15 13 12 11 8 5 10 15 16 15 16 18 16 19 19 19
14 19 19 18 17 16 14 13 14 13 20 19 19 19 19 20 20 19 19 18 22 20 19 18 16 15 15 11 9 9 9 10 14 12 11 14 12 13 15 16 17 16 17
12 16 18 22 18 15 14 12 15 14 19 20 20 21 20 20 19 21 19 20 22 20 17 17 15 15 14 11 9 9 9 13 18 18 17 14 11 12 13 13 14 15 15
13 15 17 22 20 16 14 12 15 14 19 20 20 20 20 20 20 21 19 23 22 19 16 16 15 14 13 11 9 8 8 10 16 18 16 13 12 13 13 13 13 13 13
8 13 15 18 19 17 14 12 14 15 17 19 21 21 21 21 19 19 19 21 21 19 17 15 15 14 12 10 8 7 8 13 18 17 14 11 11 12 12 12 13 12 12
12 12 14 16 15 14 15 11 12 16 17 19 22 23 22 23 21 19 21 20 20 18 16 14 13 13 11 8 6 5 6 11 11 17 14 10 10 11 11 11 11 11 11
11 13 12 5 14 12 10 8 11 16 17 19 22 23 23 23 21 22 20 22 21 17 17 14 13 12 10 7 4 3 4 6 12 14 12 11 9 9 9 8 8 8 8
9 11 7 14 15 15 4 4 8 18 17 20 21 23 24 27 23 23 23 21 21 17 16 14 12 10 9 7 3 0 2 4 7 15 13 12 9 7 7 5 5 5 5
6 6 8 8 8 11 14 4 2 18 19 21 22 24 25 18 19 23 20 22 21 18 14 13 12 10 9 7 5 3 2 2 3 11 11 12 9 6 5 4 3 2 2
7 4 4 9 3 6 8 12 9 9 13 16 17 18 15 16 15 18 16 22 23 20 15 12 11 10 9 6 6 6 5 4 1 15 11 11 9 6 5 4 3 3 3
6 6 7 7 6 7 5 6 8 8 8 14 18 16 15 13 12 13 11 12 14 19 14 11 9 9 8 8 8 7 6 6 6 12 14 12 10 7 5 6 6 7 6
9 9 10 10 11 9 8 6 11 11 9 11 14 16 15 8 8 10 10 10 11 14 12 12 11 12 10 11 13 9 9 7 4 11 13 12 12 10 8 7 7 7 7
7 9 8 8 9 11 12 6 10 10 9 13 12 13 17 11 6 10 9 9 11 14 13 10 10 9 9 10 9 8 7 7 7 9 14 15 13 10 10 8 8 8 6
6 8 8 8 9 8 10 11 9 14 17 13 15 14 16 17 13 10 9 10 10 13 14 12 8 6 6 7 5 9 9 7 10 10 16 16 16 13 12 9 7 7 3
5 9 9 6 11 10 11 10 6 14 17 13 16 21 23 20 18 15 9 7 12 14 16 13 9 5 3 4 5 6 8 10 7 9 11 12 16 15 9 8 5 5 3
6 7 8 5 8 10 6 12 6 9 12 13 15 17 22 20 18 14 8 7 14 13 9 4 3 3 3 3 3 4 3 6 6 6 5 6 7 5 6 4 4 3 4
9 9 7 3 10 9 10 11 6 9 6 11 12 13 18 17 17 11 5 7 12 7 4 3 3 3 3 3 3 3 4 4 3 5 9 12 12 8 5 3 2 2 4
9 10 9 5 6 7 10 11 6 10 3 7 7 9 14 12 14 10 7 7 10 4 4 3 4 3 3 4 3 3 3 3 2 3 5 9 9 9 8 7 5 5 2
9 8 12 10 8 7 7 9 6 8 7 2 3 12 13 13 13 10 4 4 7 7 6 6 4 5 4 3 3 1 2 3 3 3 5 6 6 8 7 8 8 7 8
9 9 8 10 11 9 9 9 6 6 4 6 3 7 11 15 15 10 6 5 6 5 6 6 5 3 3 3 3 2 1 2 1 1 2 4 5 8 7 8 8 7 7
6 8 9 12 10 6 6 6 7 10 7 8 8 4 5 12 13 13 10 5 5 5 5 5 5 6 4 1 2 3 2 4 2 1 2 2 5 3 5 8 11 10 8
7 6 5 5 8 5 5 5 5 4 5 1 3 4 4 8 9 10 9 7 5 3 4 4 4 4 4 4 1 1 1 2 3 2 2 1 3 5 4 3 6 9 11
10 9 10 8 7 6 8 5 4 5 4 3 3 5 3 4 5 5 6 6 5 3 1 3 3 1 1 4 3 3 1 1 2 2 3 2 2 1 2 3 7 10 9
13 11 11 10 8 6 5 5 4 5 5 4 4 4 1 0 3 3 2 3 4 3 2 4 5 5 4 0 2 1 4 3 4 2 1 2 3 2 2 3 4 7 9
Wind_Direction
164 159 154 148 145 144 142 147 147 157 152 150 145 142 142 139 131 129 128 131 131 128 132 117 102 97 98 97 94 93 89 86 84 82 71 65 68 73 71 66 71 71 77
147 159 157 151 146 149 148 147 150 153 155 155 150 150 150 149 137 137 133 132 122 114 113 115 105 99 101 103 101 97 92 94 93 72 78 68 65 69 66 67 73 73 73
145 154 156 152 147 150 152 150 152 163 156 159 152 152 152 144 142 144 137 132 121 118 114 114 109 103 105 107 104 99 96 91 95 83 87 77 70 71 70 78 70 71 72
148 153 155 151 148 150 155 159 159 172 160 161 159 155 153 148 147 146 143 134 124 122 119 117 115 114 114 113 109 99 78 49 71 118 94 81 73 74 72 66 70 69 63
143 156 159 150 150 154 158 165 166 175 160 160 163 158 154 152 146 149 139 129 123 120 122 122 121 121 118 116 109 89 63 51 91 92 89 86 82 81 78 73 68 67 65
149 154 164 152 150 156 155 167 164 174 167 164 164 161 157 153 149 145 135 124 121 121 125 124 123 121 118 116 109 86 57 51 104 95 89 83 83 81 77 75 74 70 67
125 137 159 154 151 156 154 167 171 171 174 168 167 161 158 153 148 142 130 128 123 121 126 128 127 123 119 118 112 87 59 67 118 105 98 87 87 87 83 81 79 77 73
130 138 156 155 153 157 153 163 177 179 177 177 172 163 159 149 150 156 150 127 127 133 136 134 131 127 122 119 109 89 55 69 122 113 110 98 93 89 86 81 79 78 76
97 91 55 37 152 158 148 162 185 182 178 177 171 162 158 154 160 156 151 149 138 144 144 140 137 133 129 124 113 86 64 46 130 122 121 116 107 97 89 87 84 82 80
91 99 108 54 53 24 128 167 195 186 172 170 170 165 161 157 161 159 164 155 137 138 137 138 145 144 140 141 148 285 45 20 95 140 138 131 123 115 113 112 105 98 91
95 108 110 88 49 40 19 28 236 186 177 167 158 161 157 153 160 161 166 155 149 141 138 148 151 149 152 161 178 217 291 304 341 157 149 143 142 143 140 140 132 121 105
143 148 147 120 101 60 7 5 343 151 156 155 153 158 154 150 157 165 165 157 154 150 151 159 164 167 173 187 214 225 235 261 198 158 159 160 161 173 186 198 195 220 226
136 151 162 150 153 102 21 316 323 275 163 158 154 155 150 149 143 146 148 150 144 147 153 169 182 194 200 204 227 228 228 250 177 163 171 173 174 187 207 232 229 234 240
156 156 168 177 170 142 172 240 279 221 195 166 166 160 157 142 152 163 166 153 145 153 166 186 201 212 211 218 242 229 229 213 169 184 181 183 189 195 210 233 262 265 254
174 159 175 179 180 168 185 202 258 213 206 176 163 179 170 160 161 157 167 159 170 179 187 197 206 210 223 220 197 203 203 224 227 186 193 196 195 200 215 228 247 266 287
175 161 161 195 192 183 205 169 243 205 184 184 181 201 172 165 164 170 172 180 190 193 201 197 204 203 205 191 214 218 223 237 242 197 203 202 205 206 217 228 252 275 293
189 160 187 215 197 192 202 160 208 198 187 186 184 184 175 172 173 171 175 182 197 192 196 198 208 197 195 213 208 219 224 218 217 216 207 200 206 216 218 231 251 279 306
157 162 194 243 183 202 108 154 177 212 179 184 186 171 166 178 171 169 171 175 179 175 177 172 170 200 196 193 199 223 210 221 223 228 106 181 184 216 230 255 254 275 326
152 168 184 188 205 137 126 87 219 234 159 165 154 152 160 163 168 150 153 157 163 163 168 180 191 172 181 210 228 236 256 226 233 105 110 117 125 117 109 99 109 308 308
168 170 171 186 228 181 149 139 210 237 185 143 164 153 157 156 159 144 155 159 165 164 187 184 183 196 173 200 229 192 199 160 120 133 121 120 116 106 87 68 91 64 9
178 176 189 182 206 172 154 149 168 203 211 264 170 163 162 154 158 155 164 170 178 179 186 190 182 187 212 175 129 234 246 67 122 145 129 121 117 112 98 86 116 108 84
182 184 192 178 194 187 167 167 167 184 203 219 201 187 161 163 164 170 174 183 181 176 186 194 183 175 196 173 155 118 166 5 46 168 147 141 139 127 120 112 127 117 91
189 166 179 178 171 187 125 148 148 196 183 183 193 200 186 167 176 182 179 172 179 173 179 187 189 184 167 123 142 151 146 201 147 130 235 170 140 134 148 141 128 128 113
177 169 156 145 149 160 113 103 118 138 156 161 196 174 143 148 173 173 174 170 171 193 192 200 200 189 147 159 199 122 116 173 169 129 241 198 173 153 166 138 139 131 122
160 169 160 126 125 101 96 89 92 109 126 124 89 100 119 128 142 161 179 183 169 194 225 229 195 204 208 176 168 178 203 43 14 103 164 212 355 166 162 127 134 128 134
126 120 122 100 78 86 94 127 133 98 114 100 75 77 57 346 79 107 108 77 149 164 190 220 203 180 211 357 67 158 167 187 170 162 170 180 185 231 159 121 117 133 136